User: anonymous
Location: Albany
(35.0000°S, 118.0000°E)
Time: 09:47:19
(UTC-04:00)
Language:

Cosmos 1346 Rocket - Orbit

View from above orbital plane
View from above orbital plane
View from above satellite
View from above satellite

Ground track
Ground track

The orbit data is extracted from the following two-line orbital elements,

1 13121U 82027B   14109.14446115  .00004212  00000-0  29398-3 0  3726
2 13121 081.1702 003.4886 0029246 021.7964 338.4495 15.04821492743017
Epoch (UTC): 19 April 2014 03:28:01
Eccentricity: 0.0029246
inclination: 81.1702°
perigee height: 532 km
apogee height: 572 km
right ascension of ascending node: 3.4886°
argument of perigee: 21.7964°
revolutions per day: 15.04821492
mean anomaly at epoch: 338.4495°
orbit number at epoch: 74301

The dashed part of the orbit path shows where the satellite is in the earth's shadow,  

DLR